Regional Weather Roundup
Issued by NWS Sioux Falls, SD

Home | Current Version | Previous Version | Graphics & Text | Print | Product List | Glossary Off
Versions: 1 2 3 4 5 6 7 8 9 10 11 12 13 14 15 16 17 18 19 20 21 22 23 24 25 26 27 28 29 30 31 32 33 34 35 36 37 38 39 40 41 42 43 44 45 46 47 48 49 50

000
ASUS43 KFSD 290402
RWRFSD

WEATHER ROUNDUP FOR SE SOUTH DAKOTA/SW MINNESOTA/NW IOWA
NATIONAL WEATHER SERVICE SIOUX FALLS SD
1100 PM CDT TUE MAR 28 2017

NOTE: "FAIR" INDICATES FEW OR NO CLOUDS BELOW 12,000 FEET WITH NO
SIGNIFICANT WEATHER AND OR OBSTRUCTIONS TO VISIBILITY.


SDZ038>040-050-052>070-290500-
SOUTHEAST SOUTH DAKOTA

CITY           SKY/WX    TMP DP  RH WIND       PRES   REMARKS
BROOKINGS      PTCLDY    45  37  73 NE6       30.15F
CHAMBERLAIN    CLOUDY    47  45  92 W7        30.14F
HURON          CLOUDY    45  39  79 NE5       30.14F
MADISON        FAIR      43  43 100 E6        30.15F
MITCHELL       MOCLDY    48  37  65 E6        30.14F
SIOUX FALLS    CLOUDY    44  37  76 NE5       30.14F
WINNER         CLOUDY    44  42  93 W3        30.14F
YANKTON        CLOUDY    50  37  62 E8        30.11S
$$

MNZ071-072-080-081-089-090-097-098-290500-
SOUTHWEST MINNESOTA

CITY           SKY/WX    TMP DP  RH WIND       PRES   REMARKS
FAIRMONT       PTCLDY    45  39  79 E8        30.17F
JACKSON        CLOUDY    43  36  75 E5        30.16F
LUVERNE        PTCLDY    43  34  70 NE6       30.15F
MARSHALL       CLOUDY    49  35  58 CALM      30.18S
MONTEVIDEO     CLOUDY    46  34  61 E6        30.18F
PIPESTONE      CLOUDY    43  32  65 CALM      30.15F
REDWOOD FALLS  CLOUDY    51  32  48 NE5       30.18S
TRACY          CLOUDY    46  37  69 CALM      30.17S
WINDOM         CLOUDY    41  36  81 E5        30.16F
WORTHINGTON    CLOUDY    44  37  76 NE7       30.16F
$$

IAZ001>003-012>014-020>022-031-032-NEZ013-014-SDZ071-290500-
NORTHWEST IOWA

CITY           SKY/WX    TMP DP  RH WIND       PRES   REMARKS
CHEROKEE       CLOUDY    45  42  90 CALM      30.13F
DENISON        CLOUDY    46  43  87 NE8       30.13S
ESTHERVILLE    MOCLDY    42  40  92 E8        30.15F
LE MARS        CLOUDY    48  43  81 CALM      30.14S
ORANGE CITY    CLOUDY    46  43  87 CALM      30.12F
SHELDON        MOCLDY    46  39  76 E3        30.12F
SIOUX CITY     CLOUDY    48  42  80 E5        30.12F
SPENCER        MOCLDY    47  40  76 E5        30.13F
STORM LAKE     CLOUDY    43  41  93 NE5       30.13F
$$

ABBREVIATIONS USED IN REMARKS
   TC - TEMPERATURE IN CELSIUS
  WCI - WIND CHILL INDEX
   HX - HEAT INDEX
  VSB - VISIBILITY





USA.gov is the U.S. government's official web portal to all federal, state and local government web resources and services.